Temperature
17 17 18 18 18 18 18 18 18 18 18 18 18 18 18 18 18 18 18 18 18 18 18 18 18 18 18 18 18 18 18 18 18 18 18 18 18 18 18 18 18 18 18
17 17 18 18 18 18 18 18 18 18 18 18 18 18 17 17 17 17 17 17 17 17 17 17 18 18 18 18 18 18 18 18 18 18 18 18 18 18 18 18 18 18 18
17 17 18 18 18 18 18 18 18 17 17 17 17 17 17 17 17 17 17 17 17 17 17 17 17 17 17 18 18 18 18 18 18 18 18 18 18 18 18 18 18 18 18
18 18 18 18 18 17 17 17 17 17 17 17 17 17 17 17 17 17 17 17 17 17 17 17 17 17 17 17 17 17 17 17 18 17 17 18 18 18 18 18 18 18 18
18 17 17 17 17 17 17 17 17 17 17 17 17 17 17 16 16 16 16 17 17 17 17 17 17 17 17 17 17 17 17 17 17 17 17 17 18 18 18 18 18 18 18
17 17 17 17 17 17 17 17 17 17 17 17 17 16 16 16 16 16 16 16 16 16 16 17 17 17 17 17 17 17 17 17 17 17 17 17 17 17 18 18 18 18 18
18 17 17 17 17 17 17 17 17 17 17 17 16 16 16 16 16 16 16 16 16 16 16 16 16 16 17 17 17 17 17 17 17 17 17 17 17 17 18 18 18 18 18
18 17 17 17 17 17 17 17 17 16 16 16 16 16 16 16 16 16 16 16 16 16 16 16 16 16 16 17 17 17 17 17 17 17 17 17 17 17 17 17 18 18 18
18 17 17 17 17 17 17 16 16 16 16 16 16 16 16 16 16 16 16 16 16 16 16 16 16 16 16 16 16 16 17 17 17 17 17 17 17 17 17 17 17 17 18
18 17 17 17 17 17 16 16 16 16 16 16 16 16 16 16 16 16 15 15 15 15 16 16 16 16 16 16 16 16 16 17 17 17 17 17 17 17 17 17 17 17 17
17 17 17 17 17 17 16 16 16 16 16 16 16 16 16 16 16 16 16 15 15 15 15 16 16 16 16 16 16 16 16 16 16 17 17 17 17 17 17 17 17 17 17
18 17 17 17 17 17 17 16 16 16 16 16 16 16 16 16 16 16 16 15 15 15 16 16 16 16 16 16 16 16 16 16 16 16 16 16 16 17 17 17 17 17 17
18 18 17 17 17 17 17 17 17 16 16 16 16 16 16 16 16 16 16 16 16 16 16 16 16 16 16 16 16 16 16 16 16 16 16 16 16 16 17 17 17 17 17
18 18 18 17 17 17 17 17 17 17 16 16 16 16 16 16 16 16 16 16 16 16 16 16 16 16 16 16 16 16 16 16 16 16 16 16 16 16 16 16 17 17 17
18 18 18 18 17 17 17 17 17 17 16 16 16 16 16 16 16 16 16 16 16 16 16 16 16 16 16 16 16 16 16 16 16 16 16 16 16 16 16 16 16 16 16
19 18 18 18 18 17 17 17 17 17 16 16 16 16 16 16 16 16 16 16 16 16 16 16 16 16 16 16 16 16 16 16 16 16 16 16 16 16 16 16 16 16 16
19 18 18 18 18 17 17 17 17 17 17 16 16 16 16 16 16 16 16 16 16 15 15 15 15 16 15 15 16 16 16 16 16 16 16 16 16 16 16 16 16 16 16
19 19 18 18 18 18 17 17 17 17 17 16 16 16 16 16 16 16 16 15 15 15 15 15 15 15 15 15 16 16 16 15 15 15 15 15 15 15 16 16 16 16 16
19 19 18 18 18 18 17 17 17 17 16 16 16 16 16 16 15 15 15 15 15 15 15 15 15 15 15 15 15 16 15 16 15 15 15 15 15 15 15 15 15 16 16
19 19 18 18 18 18 17 17 17 17 16 16 16 16 16 15 15 15 15 15 15 15 15 15 15 15 15 15 15 15 15 15 15 15 15 15 15 15 15 15 15 15 15
19 19 19 18 18 18 17 17 17 16 16 16 16 16 16 15 15 15 15 15 15 15 15 15 15 15 15 15 15 15 15 15 15 15 15 15 15 15 15 15 15 15 15
19 19 19 18 18 18 17 17 17 16 16 16 16 16 16 15 15 15 15 15 15 15 15 14 14 15 15 15 15 15 15 15 15 15 15 15 14 15 15 15 15 15 15
19 19 19 18 18 18 18 17 17 16 16 16 16 16 16 15 15 15 15 15 15 15 14 14 14 14 14 14 14 14 14 14 14 15 14 14 14 14 14 15 15 15 15
19 19 19 19 18 18 18 17 17 17 16 16 16 16 16 15 15 15 15 15 15 14 14 14 14 14 14 14 14 14 14 13 13 14 14 14 14 14 14 14 14 14 14
19 19 19 19 18 18 18 17 17 17 16 16 16 16 15 15 15 15 15 15 15 14 14 14 14 14 14 13 13 13 13 13 13 13 13 14 14 14 14 14 14 14 14
19 19 19 19 18 18 18 17 17 17 17 16 16 16 16 15 15 15 15 15 14 14 14 14 14 14 13 13 13 13 13 13 13 13 13 13 13 13 14 14 14 14 14
Wind_Speed
1 4 10 12 13 14 14 15 15 15 15 15 15 15 14 14 14 13 13 13 12 12 11 11 11 10 10 9 9 9 8 7 7 7 6 6 7 7 7 8 8 6 7
4 7 12 13 13 14 14 14 14 14 14 14 14 14 13 13 13 13 12 12 12 11 11 11 10 9 9 8 8 8 8 8 7 6 6 6 6 7 7 8 8 7 7
6 8 12 13 14 14 14 14 14 14 14 14 13 13 12 12 12 12 12 11 11 11 10 10 9 9 8 8 8 8 8 8 7 6 5 4 5 7 7 7 7 8 7
9 9 12 14 14 14 14 14 14 13 13 13 13 12 12 12 12 12 11 11 11 10 10 9 8 8 8 8 8 8 8 8 6 6 5 4 4 6 7 7 7 7 8
9 10 12 13 13 13 13 13 13 13 12 12 12 12 11 11 11 11 11 10 10 9 9 9 8 7 7 7 7 7 8 7 6 5 4 4 4 6 7 7 6 7 7
8 10 12 13 14 13 13 13 12 12 12 11 11 11 11 11 10 10 9 9 8 8 8 7 7 7 7 7 7 8 8 7 5 4 4 3 3 5 6 6 6 6 6
7 9 12 13 13 13 13 12 11 11 11 10 10 9 9 9 9 8 8 7 7 7 6 6 6 6 7 7 8 8 7 7 5 3 3 2 3 5 6 6 5 5 5
8 9 11 13 13 12 11 11 10 10 9 8 8 7 6 6 6 6 6 6 6 6 6 5 6 6 7 7 8 8 8 6 4 3 3 2 4 4 5 5 5 4 4
8 8 8 10 10 10 10 10 9 8 7 6 6 5 4 3 4 4 4 4 5 5 5 5 6 6 7 7 8 8 8 7 4 2 3 3 4 5 5 5 4 3 3
6 6 6 7 8 7 7 7 7 6 5 4 3 3 2 2 1 2 2 3 4 5 5 6 6 7 7 8 8 8 7 6 5 3 2 3 4 5 5 5 4 4 3
6 4 5 5 6 6 5 5 4 4 3 2 2 2 2 3 2 2 3 4 5 6 7 7 8 8 7 8 8 8 6 4 3 2 2 4 5 5 5 5 4 4 4
6 5 4 4 5 5 4 3 2 1 2 2 2 3 3 3 2 2 4 5 6 7 8 8 9 8 7 7 8 7 4 3 2 1 2 4 4 4 4 4 4 3 4
6 6 5 5 6 5 3 4 3 3 3 3 3 4 5 5 5 5 5 6 7 8 8 8 8 8 7 6 6 5 4 2 2 1 1 3 3 3 3 3 3 3 4
6 6 5 5 5 5 5 4 4 4 4 4 5 6 7 5 5 5 4 5 6 6 6 6 6 7 7 6 5 5 5 3 2 1 0 2 2 2 2 2 2 3 4
7 6 5 6 5 5 5 4 4 4 4 5 7 7 7 5 3 4 5 6 7 7 5 5 5 5 5 5 5 5 4 4 3 2 2 1 0 1 0 1 2 2 3
7 7 5 6 5 6 4 4 4 5 7 9 9 9 9 8 6 5 5 5 6 7 6 5 5 4 3 3 4 4 4 3 3 3 3 3 2 1 1 1 2 2 3
8 7 7 6 6 6 5 4 5 6 8 8 9 10 10 9 8 6 4 4 6 8 8 7 6 5 4 4 5 4 3 4 4 3 4 4 3 3 2 2 2 3 3
8 7 7 7 7 6 5 5 5 7 8 7 9 10 11 10 10 8 4 4 7 8 7 4 5 4 5 4 4 4 3 3 3 3 4 4 4 3 3 3 3 3 4
8 8 7 6 6 6 5 6 6 7 6 7 9 9 10 10 10 8 5 5 8 7 5 4 5 3 4 4 3 4 4 4 3 4 4 5 5 4 3 4 4 3 4
7 8 7 6 5 5 4 4 4 5 4 6 7 8 9 9 9 8 5 6 7 5 5 5 4 4 3 3 4 5 4 4 4 4 4 5 6 6 5 5 4 3 4
7 7 7 6 5 4 3 3 3 2 2 2 4 7 8 8 9 8 5 5 5 4 4 5 4 5 5 4 4 4 5 5 6 5 4 4 6 7 6 6 5 4 3
8 8 7 7 6 5 3 3 3 3 2 1 3 5 7 8 8 7 5 4 4 4 6 6 4 3 4 5 3 3 4 5 5 6 5 5 6 6 6 7 6 5 5
9 9 8 7 6 5 5 4 4 4 3 3 3 2 4 6 8 7 6 5 4 3 4 4 4 4 4 4 3 3 3 1 3 4 5 5 6 5 5 6 8 7 6
9 8 8 7 6 5 6 6 6 4 3 1 1 1 3 5 6 7 7 6 5 3 4 4 4 3 4 3 3 3 2 2 1 3 4 5 6 5 6 5 6 7 8
9 9 8 8 6 5 6 7 7 5 3 2 1 2 2 3 5 6 6 6 4 3 4 4 5 4 3 3 2 2 3 3 2 2 2 5 5 4 5 4 4 6 8
8 8 8 8 6 5 6 6 7 7 5 4 3 2 1 2 3 4 5 5 4 3 3 3 4 5 4 4 3 3 2 2 1 1 0 2 3 4 4 4 4 6 7
Wind_Direction
44 89 94 93 95 95 94 94 92 90 88 86 84 81 79 78 76 75 74 72 70 67 65 64 63 61 58 56 54 50 50 53 57 64 67 65 64 66 65 63 62 62 67
128 97 96 96 97 97 95 94 92 90 88 86 84 82 79 77 75 74 73 71 68 65 62 60 59 57 53 50 45 42 41 45 50 57 66 61 67 73 70 66 64 63 65
113 100 97 97 98 97 96 94 92 89 87 86 84 82 80 77 74 72 71 69 67 65 63 59 55 52 50 45 39 36 34 35 41 52 67 60 74 82 77 68 64 64 64
115 106 102 101 101 100 97 94 92 89 86 85 84 82 80 78 75 73 70 68 66 63 61 57 54 49 43 40 36 31 26 25 35 57 66 62 77 90 82 73 68 66 65
110 110 109 107 105 102 99 95 93 90 87 85 83 82 81 78 74 70 68 67 64 62 59 54 50 43 37 32 27 23 21 24 43 65 72 71 77 93 87 78 70 66 64
118 120 118 115 109 105 102 98 95 93 90 87 86 84 82 78 74 70 67 66 62 58 55 50 42 33 25 19 17 18 18 21 40 62 74 86 104 104 95 85 73 65 64
128 129 126 120 115 110 107 105 101 97 94 92 90 88 85 80 76 71 68 64 59 53 48 39 28 21 14 7 8 12 14 20 38 54 64 98 116 108 98 88 76 66 63
136 132 130 126 121 118 115 110 105 102 100 98 93 92 91 84 79 74 69 63 59 51 43 31 18 7 2 358 357 1 9 20 31 63 60 101 118 110 99 89 77 65 60
136 134 131 131 129 125 120 116 112 108 104 99 92 91 92 85 81 75 64 55 49 41 29 17 8 360 355 351 351 356 7 26 37 66 79 104 110 105 92 84 73 59 50
135 138 140 139 137 135 128 126 121 115 108 97 81 71 64 53 53 46 39 26 23 23 13 5 1 358 356 356 358 2 11 34 43 58 89 121 115 102 90 82 68 51 35
145 150 144 147 151 153 152 148 132 115 101 68 36 33 42 22 345 335 360 9 8 10 8 6 5 3 360 359 358 4 24 43 53 84 119 131 120 104 91 80 66 46 30
158 167 160 161 169 171 166 145 119 81 58 40 28 33 47 32 7 1 2 11 13 13 11 14 14 12 11 6 5 16 33 51 59 79 139 138 126 109 95 83 65 44 28
163 157 160 165 165 159 140 124 103 74 58 49 41 55 64 54 40 32 22 13 17 19 13 9 12 12 14 14 15 25 36 58 54 23 168 158 144 121 104 88 64 38 21
133 144 154 145 134 136 124 113 106 85 68 54 51 63 69 60 45 34 28 15 16 13 8 11 7 7 17 22 26 33 40 50 55 54 309 185 168 149 114 79 52 32 21
120 130 135 130 126 120 105 98 91 82 68 55 54 60 69 67 54 44 35 31 23 24 20 14 12 13 18 18 24 30 30 36 43 43 21 20 189 195 107 31 29 26 19
125 128 123 119 118 109 102 99 96 83 74 63 57 62 68 68 62 52 39 31 23 22 25 29 25 23 19 19 14 18 27 30 41 36 21 358 337 333 318 336 356 4 8
135 129 125 123 110 106 106 105 99 90 80 68 63 65 63 62 61 58 45 27 19 26 31 32 25 28 27 25 16 10 29 29 27 16 18 6 342 333 336 338 353 357 3
140 131 126 122 111 109 108 104 99 94 84 73 70 63 58 59 63 61 48 25 26 34 30 27 24 23 19 16 11 9 17 21 20 18 25 20 13 10 359 350 357 2 10
142 133 124 121 119 112 104 97 92 90 80 73 69 63 60 60 63 65 52 32 36 36 23 24 29 25 19 8 8 21 15 15 5 31 30 25 25 19 6 2 8 12 23
142 134 130 124 120 110 95 86 75 67 58 62 65 63 63 61 62 61 52 37 39 37 25 24 26 22 20 5 21 19 7 9 18 26 24 31 30 28 27 16 11 359 11
140 135 135 130 132 120 107 106 100 89 64 47 54 65 67 63 60 61 51 38 37 43 32 28 26 23 14 9 35 10 358 13 28 21 17 27 27 24 27 23 22 11 357
150 145 142 140 139 136 137 141 135 128 108 85 48 53 57 58 57 61 56 46 38 42 34 30 36 32 19 27 63 54 12 358 358 8 14 22 12 20 23 24 21 18 14
158 160 155 151 145 140 128 109 89 71 53 40 30 20 26 53 59 60 59 59 46 53 46 34 40 56 36 18 45 97 92 348 326 340 5 15 8 11 5 18 26 21 21
168 163 155 151 145 138 126 121 125 127 132 168 166 43 30 45 54 59 61 64 59 53 49 39 50 53 64 33 16 38 98 158 104 339 338 352 5 13 3 9 14 14 15
162 157 154 146 140 139 133 133 130 130 140 132 97 70 38 22 37 50 60 62 56 50 51 47 47 49 60 67 43 25 38 43 68 112 336 336 345 346 351 352 6 7 8
155 151 148 144 145 149 141 139 139 141 138 124 111 94 30 10 10 26 54 59 56 52 51 49 51 53 54 60 56 53 65 59 24 86 336 322 327 322 335 349 5 3 5
Height
1544 1544 1544 1543 1543 1543 1543 1543 1543 1543 1543 1543 1543 1543 1542 1542 1542 1542 1542 1542 1541 1541 1540 1540 1540 1540 1539 1539 1539 1538 1538 1538 1538 1537 1537 1537 1536 1536 1535 1535 1534 1534 1534
1545 1545 1544 1544 1544 1544 1544 1544 1544 1544 1544 1543 1543 1543 1543 1543 1543 1542 1542 1542 1542 1541 1541 1541 1540 1540 1540 1539 1539 1539 1539 1538 1538 1538 1538 1537 1537 1537 1536 1535 1535 1535 1534
1546 1546 1545 1545 1545 1545 1545 1545 1545 1545 1545 1544 1544 1544 1544 1544 1543 1543 1543 1542 1542 1541 1541 1541 1541 1540 1540 1540 1540 1539 1539 1539 1539 1538 1538 1538 1537 1537 1537 1536 1536 1535 1534
1547 1547 1546 1546 1546 1546 1546 1546 1546 1546 1545 1545 1545 1545 1545 1544 1544 1544 1543 1543 1542 1542 1541 1541 1541 1541 1540 1540 1540 1540 1539 1539 1539 1539 1539 1538 1538 1538 1537 1537 1536 1536 1535
1548 1548 1548 1547 1547 1547 1547 1547 1547 1547 1547 1546 1546 1546 1546 1545 1545 1544 1543 1543 1542 1542 1542 1541 1541 1541 1540 1540 1540 1540 1540 1539 1539 1539 1539 1539 1538 1538 1538 1538 1537 1536 1536
1549 1549 1549 1549 1549 1549 1549 1548 1548 1548 1548 1548 1547 1547 1547 1546 1545 1545 1544 1543 1543 1542 1542 1542 1541 1541 1541 1541 1540 1540 1540 1540 1540 1540 1539 1539 1539 1539 1538 1538 1538 1537 1536
1551 1551 1551 1551 1551 1551 1550 1550 1550 1549 1549 1549 1549 1548 1548 1547 1546 1546 1545 1544 1543 1543 1542 1542 1542 1541 1541 1541 1541 1540 1540 1540 1540 1540 1540 1540 1539 1539 1539 1538 1538 1537 1537
1553 1553 1553 1553 1553 1552 1552 1552 1552 1551 1551 1551 1551 1550 1549 1549 1548 1547 1546 1545 1544 1543 1543 1543 1542 1542 1541 1541 1541 1541 1541 1540 1540 1540 1540 1540 1540 1540 1539 1539 1538 1538 1537
1554 1554 1555 1555 1555 1554 1554 1554 1554 1553 1553 1553 1552 1552 1551 1550 1549 1549 1548 1547 1546 1545 1544 1543 1543 1542 1542 1542 1542 1541 1541 1541 1541 1541 1541 1540 1540 1540 1539 1539 1538 1538 1537
1556 1556 1556 1556 1557 1556 1556 1556 1556 1555 1555 1554 1554 1553 1552 1552 1551 1550 1549 1548 1547 1546 1545 1544 1543 1543 1543 1542 1542 1542 1542 1541 1541 1541 1541 1541 1540 1540 1540 1539 1539 1538 1537
1558 1558 1558 1558 1558 1558 1558 1558 1557 1557 1556 1556 1555 1554 1554 1553 1552 1551 1550 1549 1548 1547 1546 1545 1544 1543 1543 1543 1543 1542 1542 1542 1542 1542 1541 1541 1541 1540 1540 1539 1539 1538 1537
1558 1559 1560 1560 1560 1560 1559 1559 1559 1558 1558 1557 1556 1555 1555 1554 1553 1552 1551 1550 1549 1548 1546 1546 1545 1544 1544 1543 1543 1543 1543 1543 1542 1542 1542 1542 1541 1541 1540 1539 1539 1538 1537
1559 1560 1561 1561 1561 1561 1561 1561 1560 1560 1559 1558 1557 1557 1556 1555 1554 1553 1552 1551 1549 1548 1547 1546 1545 1545 1544 1544 1543 1543 1543 1543 1543 1542 1542 1542 1541 1541 1540 1539 1539 1538 1537
1561 1561 1562 1562 1562 1563 1562 1562 1562 1561 1560 1560 1559 1558 1557 1556 1555 1554 1553 1551 1550 1549 1548 1547 1546 1545 1544 1544 1543 1543 1543 1543 1543 1542 1542 1542 1541 1541 1540 1539 1539 1538 1537
1562 1562 1563 1564 1564 1564 1564 1563 1563 1562 1562 1561 1560 1559 1558 1557 1556 1555 1553 1552 1551 1549 1548 1547 1546 1545 1544 1544 1544 1543 1543 1543 1543 1542 1542 1542 1541 1541 1540 1539 1539 1538 1537
1563 1563 1564 1565 1565 1565 1565 1564 1564 1564 1563 1562 1561 1560 1559 1558 1556 1555 1554 1553 1551 1550 1549 1548 1547 1546 1545 1544 1544 1543 1543 1543 1543 1542 1542 1542 1541 1541 1540 1539 1538 1537 1536
1563 1564 1565 1565 1566 1566 1566 1565 1565 1565 1564 1563 1562 1561 1560 1559 1558 1556 1555 1553 1552 1551 1550 1548 1547 1546 1546 1545 1544 1544 1543 1543 1543 1543 1542 1542 1541 1541 1540 1540 1538 1538 1536
1564 1565 1565 1566 1566 1566 1566 1566 1566 1565 1565 1564 1563 1562 1561 1560 1559 1557 1556 1554 1553 1551 1550 1549 1548 1547 1546 1545 1545 1544 1544 1544 1543 1543 1543 1542 1541 1541 1540 1540 1539 1538 1537
1564 1565 1566 1566 1566 1567 1567 1567 1566 1566 1565 1564 1564 1563 1562 1561 1560 1558 1557 1555 1554 1552 1551 1550 1549 1548 1547 1546 1545 1545 1545 1544 1544 1544 1543 1543 1542 1541 1541 1540 1539 1538 1537
1564 1565 1566 1566 1567 1567 1567 1567 1567 1566 1566 1565 1564 1563 1563 1562 1561 1559 1558 1556 1555 1553 1552 1551 1550 1549 1548 1547 1546 1546 1545 1545 1545 1545 1544 1543 1543 1542 1541 1541 1540 1538 1537
1564 1565 1565 1566 1567 1567 1567 1567 1567 1567 1566 1566 1565 1564 1564 1563 1561 1560 1559 1557 1556 1554 1553 1552 1551 1549 1548 1548 1547 1546 1546 1546 1546 1545 1545 1544 1544 1543 1542 1541 1540 1539 1538
1563 1564 1565 1566 1567 1567 1567 1567 1567 1567 1567 1566 1566 1565 1564 1563 1562 1561 1559 1558 1556 1555 1553 1552 1551 1550 1549 1548 1548 1547 1547 1548 1547 1546 1546 1545 1544 1543 1542 1541 1540 1539 1538
1562 1563 1564 1565 1566 1567 1567 1567 1567 1567 1567 1567 1566 1565 1565 1564 1562 1561 1560 1558 1557 1555 1554 1553 1552 1551 1550 1549 1549 1549 1548 1548 1547 1547 1546 1545 1545 1544 1543 1542 1541 1540 1539
1560 1562 1564 1564 1565 1566 1566 1567 1567 1567 1567 1567 1566 1566 1565 1564 1563 1562 1561 1559 1558 1556 1555 1554 1553 1552 1551 1550 1550 1549 1549 1549 1548 1547 1547 1546 1545 1544 1543 1542 1541 1540 1539
1559 1561 1562 1563 1564 1565 1566 1566 1566 1566 1567 1566 1566 1566 1565 1564 1563 1562 1561 1560 1559 1557 1556 1555 1554 1553 1552 1551 1550 1550 1549 1549 1548 1548 1547 1546 1545 1545 1544 1543 1542 1540 1539
1557 1559 1561 1562 1563 1564 1565 1565 1566 1566 1566 1566 1566 1566 1565 1565 1564 1563 1562 1561 1559 1558 1557 1556 1554 1553 1552 1552 1551 1550 1549 1549 1548 1548 1547 1545 1544 1544 1543 1543 1541 1540 1539